| time (UTC) | temp F | wind direction | speed MPH | gust MPH | rain 1hr in | rain 24hr in | rain mn in | humidity % | barometer mb |
| 20260506001449 | 49 | 58 | 0.0 | 0.0 | 0.00 | 0.57 | 0.57 | 96 | 1009.3 |
| 20260506000946 | 49 | 58 | 0.0 | 0.0 | 0.00 | 0.57 | 0.57 | 96 | 1009.4 |
| 20260506000445 | 49 | 61 | 0.0 | 0.0 | 0.00 | 0.57 | 0.57 | 96 | 1009.5 |
| 20260505235940 | 49 | 61 | 0.0 | 0.0 | 0.00 | 0.57 | 0.57 | 96 | 1009.6 |
| 20260505235439 | 49 | 19 | 1.0 | 1.0 | 0.00 | 0.57 | 0.57 | 95 | 1009.3 |
| 20260505234935 | 49 | 20 | 0.0 | 0.0 | 0.07 | 0.57 | 0.57 | 95 | 1009.4 |
| 20260505234433 | 49 | 18 | 1.0 | 1.0 | 0.07 | 0.57 | 0.57 | 95 | 1009.4 |
| 20260505233929 | 50 | 12 | 1.0 | 1.0 | 0.05 | 0.56 | 0.56 | 95 | 1009.3 |
| 20260505233427 | 50 | 24 | 1.0 | 1.0 | 0.12 | 0.56 | 0.56 | 95 | 1009.5 |
| 20260505232924 | 50 | 25 | 1.0 | 1.0 | 0.12 | 0.55 | 0.55 | 95 | 1009.5 |
| 20260505232422 | 50 | 31 | 0.0 | 1.0 | 0.19 | 0.54 | 0.54 | 95 | 1009.6 |
| 20260505231919 | 50 | 25 | 0.0 | 0.0 | 0.26 | 0.53 | 0.53 | 95 | 1009.5 |
| 20260505231416 | 50 | 52 | 0.0 | 0.0 | 0.24 | 0.51 | 0.51 | 95 | 1009.9 |
| 20260505230914 | 50 | 64 | 1.0 | 1.0 | 0.17 | 0.49 | 0.49 | 95 | 1009.9 |
| 20260505230412 | 50 | 337 | 1.0 | 1.0 | 0.24 | 0.48 | 0.48 | 95 | 1009.9 |
| 20260505225908 | 51 | 29 | 3.0 | 3.0 | 0.50 | 0.46 | 0.46 | 95 | 1009.7 |
| 20260505225405 | 51 | 329 | 1.0 | 1.0 | 0.50 | 0.44 | 0.44 | 94 | 1010.1 |
| 20260505224901 | 52 | 307 | 3.0 | 5.0 | 0.31 | 0.39 | 0.39 | 94 | 1010.1 |
| 20260505224358 | 52 | 2 | 1.0 | 1.0 | 0.17 | 0.36 | 0.36 | 95 | 1009.6 |
| 20260505223855 | 52 | 345 | 1.0 | 1.0 | 0.05 | 0.34 | 0.34 | 94 | 1009.2 |
| 20260505223352 | 52 | 8 | 0.0 | 0.0 | 0.00 | 0.33 | 0.33 | 94 | 1009.4 |
| 20260505222848 | 52 | 2 | 1.0 | 2.0 | 0.07 | 0.33 | 0.33 | 94 | 1009.2 |
| 20260505222344 | 52 | 16 | 0.0 | 0.0 | 0.12 | 0.33 | 0.33 | 94 | 1009.3 |
| 20260505221841 | 53 | 349 | 1.0 | 1.0 | 0.05 | 0.32 | 0.32 | 94 | 1009.4 |
| 20260505221338 | 53 | 8 | 0.0 | 0.0 | 0.00 | 0.31 | 0.31 | 93 | 1009.3 |
| 20260505220835 | 53 | 26 | 3.0 | 3.0 | 0.00 | 0.31 | 0.31 | 92 | 1009.4 |
| 20260505220332 | 55 | 342 | 1.0 | 2.0 | 0.07 | 0.31 | 0.31 | 92 | 1009.2 |
| 20260505215830 | 57 | 343 | 3.0 | 3.0 | 0.07 | 0.31 | 0.31 | 94 | 1009.3 |
| 20260505215328 | 57 | 325 | 1.0 | 1.0 | 0.00 | 0.30 | 0.30 | 94 | 1009.3 |
| 20260505214825 | 57 | 18 | 1.0 | 1.0 | 0.05 | 0.30 | 0.30 | 94 | 1009.3 |
| 20260505214323 | 57 | 34 | 0.0 | 0.0 | 0.12 | 0.30 | 0.30 | 94 | 1009.1 |
| 20260505213819 | 57 | 1 | 0.0 | 0.0 | 0.19 | 0.29 | 0.29 | 93 | 1008.8 |
| 20260505213317 | 57 | 0 | 0.0 | 0.0 | 0.19 | 0.29 | 0.29 | 93 | 1009.1 |
| 20260505212813 | 57 | 359 | 1.0 | 1.0 | 0.07 | 0.26 | 0.26 | 93 | 1009.0 |
| 20260505212310 | 57 | 312 | 1.0 | 1.0 | 0.07 | 0.26 | 0.26 | 93 | 1009.0 |
| 20260505211806 | 57 | 331 | 1.0 | 1.0 | 0.00 | 0.25 | 0.25 | 93 | 1009.2 |
| 20260505211304 | 57 | 338 | 1.0 | 1.0 | 0.12 | 0.25 | 0.25 | 93 | 1009.2 |
| 20260505210800 | 57 | 318 | 1.0 | 1.0 | 0.59 | 0.25 | 0.25 | 93 | 1009.3 |
| 20260505210258 | 57 | 36 | 0.0 | 0.0 | 0.71 | 0.23 | 0.23 | 92 | 1009.2 |
| 20260505205754 | 57 | 359 | 1.0 | 2.0 | 0.38 | 0.16 | 0.16 | 92 | 1009.4 |
| 20260505205253 | 58 | 165 | 1.0 | 1.0 | 0.24 | 0.11 | 0.11 | 92 | 1009.1 |
| 20260505204749 | 58 | 318 | 1.0 | 1.0 | 0.28 | 0.10 | 0.10 | 91 | 1009.2 |
| 20260505204247 | 58 | 9 | 0.0 | 0.0 | 0.19 | 0.07 | 0.07 | 90 | 1009.1 |
| 20260505203744 | 58 | 8 | 0.0 | 0.0 | 0.12 | 0.05 | 0.05 | 90 | 1009.2 |
| 20260505203241 | 58 | 319 | 0.0 | 0.0 | 0.05 | 0.04 | 0.04 | 89 | 1009.0 |
| 20260505202736 | 58 | 4 | 1.0 | 1.0 | 0.07 | 0.03 | 0.03 | 89 | 1008.9 |
| 20260505202233 | 58 | 328 | 0.0 | 0.0 | 0.07 | 0.03 | 0.03 | 89 | 1009.1 |
| 20260505201729 | 58 | 319 | 3.0 | 2.0 | 0.00 | 0.02 | 0.02 | 87 | 1009.3 |
| 20260505201227 | 59 | 306 | 3.0 | 3.0 | 0.00 | 0.02 | 0.02 | 87 | 1009.3 |
| 20260505200725 | 59 | 282 | 4.0 | 5.0 | 0.00 | 0.02 | 0.02 | 86 | 1009.4 |
| 20260505200222 | 60 | 26 | 3.0 | 2.0 | 0.00 | 0.02 | 0.02 | 86 | 1009.0 |
| 20260505195717 | 60 | 351 | 1.0 | 2.0 | 0.00 | 0.02 | 0.02 | 85 | 1009.2 |
| 20260505195215 | 60 | 306 | 3.0 | 5.0 | 0.00 | 0.02 | 0.02 | 84 | 1009.0 |
| 20260505194713 | 61 | 302 | 2.0 | 2.0 | 0.07 | 0.02 | 0.02 | 83 | 1009.1 |
| 20260505194209 | 61 | 259 | 0.0 | 0.0 | 0.07 | 0.02 | 0.02 | 81 | 1009.2 |
| 20260505193705 | 62 | 253 | 2.0 | 3.0 | 0.00 | 0.01 | 0.01 | 79 | 1009.2 |
| 20260505193202 | 62 | 269 | 3.0 | 3.0 | 0.00 | 0.01 | 0.01 | 75 | 1008.9 |
| 20260505192701 | 63 | 290 | 1.0 | 2.0 | 0.00 | 0.01 | 0.01 | 72 | 1009.1 |
| 20260505192158 | 64 | 332 | 3.0 | 3.0 | 0.00 | 0.01 | 0.01 | 71 | 1009.3 |
| 20260505191656 | 64 | 330 | 2.0 | 2.0 | 0.00 | 0.01 | 0.01 | 71 | 1009.0 |
| 20260505191154 | 64 | 27 | 0.0 | 0.0 | 0.00 | 0.01 | 0.01 | 71 | 1009.0 |
| 20260505190650 | 64 | 9 | 0.0 | 0.0 | 0.00 | 0.01 | 0.01 | 70 | 1009.1 |
| 20260505190149 | 64 | 323 | 0.0 | 0.0 | 0.00 | 0.01 | 0.01 | 69 | 1009.2 |
| 20260505185647 | 64 | 343 | 1.0 | 1.0 | 0.00 | 0.01 | 0.01 | 70 | 1009.2 |
| 20260505185143 | 64 | 292 | 4.0 | 5.0 | 0.00 | 0.01 | 0.01 | 69 | 1009.5 |
| 20260505184639 | 64 | 254 | 1.0 | 1.0 | 0.00 | 0.01 | 0.01 | 66 | 1009.6 |
| 20260505184136 | 64 | 239 | 1.0 | 1.0 | 0.00 | 0.01 | 0.01 | 66 | 1009.2 |
| 20260505183633 | 65 | 270 | 4.0 | 6.0 | 0.00 | 0.01 | 0.01 | 67 | 1009.4 |
| 20260505183131 | 64 | 16 | 0.0 | 0.0 | 0.00 | 0.01 | 0.01 | 68 | 1009.5 |
| 20260505182627 | 64 | 327 | 1.0 | 2.0 | 0.00 | 0.01 | 0.01 | 67 | 1009.4 |
| 20260505182124 | 65 | 328 | 9.0 | 10.0 | 0.00 | 0.01 | 0.01 | 64 | 1009.3 |
| 20260505181620 | 66 | 302 | 3.0 | 3.0 | 0.00 | 0.01 | 0.01 | 65 | 1009.3 |
| 20260505181118 | 65 | 330 | 1.0 | 2.0 | 0.00 | 0.01 | 0.01 | 67 | 1009.3 |
| 20260505180614 | 65 | 292 | 3.0 | 3.0 | 0.00 | 0.01 | 0.01 | 65 | 1009.3 |
| 20260505180112 | 65 | 211 | 2.0 | 3.0 | 0.00 | 0.01 | 0.01 | 64 | 1009.6 |
| 20260505175607 | 65 | 315 | 6.0 | 7.0 | 0.00 | 0.01 | 0.01 | 64 | 1009.2 |
| 20260505175104 | 65 | 317 | 5.0 | 6.0 | 0.00 | 0.01 | 0.01 | 63 | 1009.2 |
| 20260505174601 | 66 | 212 | 3.0 | 6.0 | 0.00 | 0.01 | 0.01 | 63 | 1009.2 |
| 20260505174056 | 67 | 276 | 7.0 | 11.0 | 0.00 | 0.01 | 0.01 | 61 | 1009.0 |
| 20260505173553 | 66 | 298 | 3.0 | 3.0 | 0.00 | 0.01 | 0.01 | 62 | 1009.3 |
| 20260505173050 | 66 | 339 | 4.0 | 3.0 | 0.00 | 0.01 | 0.01 | 61 | 1009.0 |
| 20260505172548 | 66 | 305 | 3.0 | 3.0 | 0.00 | 0.01 | 0.01 | 62 | 1009.2 |
| 20260505172044 | 66 | 44 | 3.0 | 5.0 | 0.00 | 0.01 | 0.01 | 61 | 1009.1 |
| 20260505171539 | 66 | 303 | 4.0 | 7.0 | 0.00 | 0.01 | 0.01 | 61 | 1009.1 |
| 20260505171036 | 66 | 303 | 4.0 | 6.0 | 0.00 | 0.01 | 0.01 | 61 | 1009.0 |
| 20260505170533 | 66 | 307 | 4.0 | 5.0 | 0.00 | 0.01 | 0.01 | 61 | 1009.1 |
| 20260505170030 | 66 | 221 | 7.0 | 8.0 | 0.00 | 0.01 | 0.01 | 60 | 1008.9 |
| 20260505165525 | 66 | 348 | 7.0 | 10.0 | 0.00 | 0.01 | 0.01 | 61 | 1009.1 |
| 20260505165021 | 66 | 216 | 1.0 | 1.0 | 0.00 | 0.01 | 0.01 | 61 | 1008.9 |
| 20260505164517 | 66 | 317 | 2.0 | 2.0 | 0.00 | 0.01 | 0.01 | 60 | 1009.1 |
| 20260505164015 | 66 | 23 | 3.0 | 3.0 | 0.00 | 0.01 | 0.01 | 60 | 1008.8 |
| 20260505163513 | 66 | 156 | 1.0 | 2.0 | 0.00 | 0.01 | 0.01 | 62 | 1009.1 |
| 20260505163010 | 66 | 9 | 9.0 | 13.0 | 0.00 | 0.01 | 0.01 | 60 | 1009.0 |
| 20260505162503 | 67 | 329 | 2.0 | 2.0 | 0.00 | 0.01 | 0.01 | 58 | 1009.1 |
| 20260505162000 | 67 | 355 | 5.0 | 7.0 | 0.00 | 0.01 | 0.01 | 58 | 1008.9 |
| 20260505161456 | 68 | 317 | 5.0 | 5.0 | 0.00 | 0.01 | 0.01 | 58 | 1008.9 |
| 20260505160954 | 68 | 242 | 2.0 | 2.0 | 0.00 | 0.01 | 0.01 | 56 | 1008.8 |
| 20260505160452 | 70 | 218 | 8.0 | 13.0 | 0.00 | 0.01 | 0.01 | 54 | 1008.8 |
| 20260505152928 | 69 | 259 | 3.0 | 5.0 | 0.00 | 0.01 | 0.01 | 53 | 1007.9 |
| 20260505152425 | 69 | 292 | 3.0 | 3.0 | 0.00 | 0.01 | 0.01 | 53 | 1007.9 |
| 20260505151920 | 69 | 230 | 4.0 | 5.0 | 0.00 | 0.01 | 0.01 | 55 | 1007.8 |
| 20260505151416 | 69 | 232 | 3.0 | 3.0 | 0.00 | 0.01 | 0.01 | 55 | 1008.1 |
| 20260505150914 | 68 | 314 | 4.0 | 5.0 | 0.00 | 0.01 | 0.01 | 58 | 1008.2 |
| 20260505150410 | 68 | 17 | 3.0 | 6.0 | 0.00 | 0.01 | 0.01 | 57 | 1008.0 |
| 20260505140335 | 66 | 235 | 2.0 | 2.0 | 0.00 | 0.01 | 0.01 | 63 | 1007.7 |
| 20260505130258 | 61 | 230 | 1.0 | 1.0 | 0.00 | 0.01 | 0.01 | 71 | 1008.0 |
| 20260505124748 | 61 | 272 | 1.0 | 1.0 | 0.00 | 0.01 | 0.01 | 72 | 1008.0 |
| 20260505124245 | 61 | 286 | 2.0 | 2.0 | 0.00 | 0.01 | 0.01 | 72 | 1008.0 |
| 20260505123740 | 61 | 281 | 3.0 | 3.0 | 0.00 | 0.01 | 0.01 | 72 | 1008.0 |
| 20260505123238 | 61 | 255 | 1.0 | 0.0 | 0.00 | 0.01 | 0.01 | 72 | 1007.8 |
| 20260505122734 | 61 | 15 | 1.0 | 1.0 | 0.00 | 0.01 | 0.01 | 72 | 1007.7 |
| 20260505122231 | 61 | 207 | 2.0 | 3.0 | 0.00 | 0.01 | 0.01 | 71 | 1007.4 |
| 20260505121728 | 61 | 226 | 3.0 | 3.0 | 0.00 | 0.01 | 0.01 | 71 | 1007.4 |
| 20260505121225 | 61 | 155 | 3.0 | 3.0 | 0.00 | 0.01 | 0.01 | 71 | 1007.4 |
| 20260505120721 | 61 | 224 | 2.0 | 2.0 | 0.00 | 0.01 | 0.01 | 70 | 1007.2 |
| 20260505120217 | 61 | 271 | 0.0 | 0.0 | 0.00 | 0.01 | 0.01 | 70 | 1007.3 |
| 20260505115715 | 60 | 23 | 2.0 | 2.0 | 0.00 | 0.01 | 0.01 | 71 | 1006.8 |
| 20260505115214 | 60 | 289 | 1.0 | 2.0 | 0.00 | 0.01 | 0.01 | 71 | 1006.6 |
| 20260505114711 | 60 | 155 | 0.0 | 0.0 | 0.00 | 0.01 | 0.01 | 71 | 1006.6 |
| 20260505114207 | 60 | 139 | 1.0 | 2.0 | 0.00 | 0.01 | 0.01 | 72 | 1006.4 |
| 20260505113703 | 59 | 183 | 2.0 | 2.0 | 0.00 | 0.01 | 0.01 | 73 | 1006.7 |
| 20260505113200 | 59 | 276 | 3.0 | 3.0 | 0.00 | 0.01 | 0.01 | 76 | 1006.7 |
| 20260505112656 | 59 | 114 | 1.0 | 1.0 | 0.00 | 0.01 | 0.01 | 77 | 1006.6 |
| 20260505112155 | 59 | 19 | 1.0 | 1.0 | 0.05 | 0.01 | 0.01 | 75 | 1006.7 |
| 20260505111654 | 60 | 182 | 3.0 | 3.0 | 0.05 | 0.01 | 0.01 | 73 | 1006.8 |
| 20260505111150 | 62 | 93 | 1.0 | 1.0 | 0.00 | 0.00 | 0.00 | 69 | 1006.7 |
| 20260505110646 | 63 | 288 | 5.0 | 6.0 | 0.00 | 0.00 | 0.00 | 64 | 1006.8 |
| 20260505110144 | 63 | 179 | 1.0 | 1.0 | 0.00 | 0.00 | 0.00 | 63 | 1006.9 |
| 20260505102119 | 64 | 67 | 2.0 | 2.0 | 0.00 | 0.00 | 0.00 | 61 | 1006.3 |
| 20260505101618 | 64 | 249 | 3.0 | 3.0 | 0.00 | 0.00 | 0.00 | 61 | 1006.3 |
| 20260505101114 | 64 | 178 | 1.0 | 2.0 | 0.00 | 0.00 | 0.00 | 62 | 1006.1 |
| 20260505100610 | 64 | 217 | 2.0 | 2.0 | 0.00 | 0.00 | 0.00 | 61 | 1005.9 |
| 20260505100107 | 64 | 248 | 1.0 | 2.0 | 0.00 | 0.00 | 0.00 | 61 | 1005.8 |
| 20260505095603 | 64 | 316 | 2.0 | 3.0 | 0.00 | 0.00 | 0.00 | 61 | 1005.9 |
| 20260505095100 | 64 | 88 | 0.0 | 0.0 | 0.00 | 0.00 | 0.00 | 59 | 1006.0 |
| 20260505094556 | 65 | 198 | 0.0 | 0.0 | 0.00 | 0.00 | 0.00 | 60 | 1005.8 |
| 20260505094052 | 65 | 210 | 2.0 | 1.0 | 0.00 | 0.00 | 0.00 | 59 | 1005.7 |
| 20260505093549 | 65 | 222 | 1.0 | 1.0 | 0.00 | 0.00 | 0.00 | 58 | 1005.7 |
| 20260505093047 | 65 | 244 | 4.0 | 5.0 | 0.00 | 0.00 | 0.00 | 57 | 1005.7 |
| 20260505092544 | 66 | 230 | 5.0 | 8.0 | 0.00 | 0.00 | 0.00 | 57 | 1005.3 |
| 20260505092042 | 66 | 258 | 5.0 | 7.0 | 0.00 | 0.00 | 0.00 | 57 | 1005.2 |
| 20260505091539 | 66 | 217 | 3.0 | 3.0 | 0.00 | 0.00 | 0.00 | 57 | 1005.6 |
| 20260505091037 | 66 | 264 | 3.0 | 3.0 | 0.00 | 0.00 | 0.00 | 56 | 1005.1 |
| 20260505090535 | 66 | 16 | 5.0 | 6.0 | 0.00 | 0.00 | 0.00 | 56 | 1005.1 |
| 20260505090032 | 66 | 200 | 3.0 | 5.0 | 0.00 | 0.00 | 0.00 | 56 | 1005.0 |
| 20260505085530 | 66 | 282 | 3.0 | 3.0 | 0.00 | 0.00 | 0.00 | 56 | 1005.1 |
| 20260505085028 | 66 | 6 | 3.0 | 3.0 | 0.00 | 0.00 | 0.00 | 56 | 1005.0 |
| 20260505084526 | 66 | 196 | 2.0 | 3.0 | 0.00 | 0.00 | 0.00 | 56 | 1005.1 |
| 20260505084024 | 66 | 285 | 2.0 | 3.0 | 0.00 | 0.00 | 0.00 | 56 | 1005.1 |
| 20260505083521 | 66 | 234 | 5.0 | 8.0 | 0.00 | 0.00 | 0.00 | 56 | 1005.3 |
| 20260505083017 | 65 | 336 | 4.0 | 5.0 | 0.00 | 0.00 | 0.00 | 57 | 1005.1 |
| 20260505082513 | 65 | 32 | 0.0 | 0.0 | 0.00 | 0.00 | 0.00 | 58 | 1005.3 |
| 20260505082010 | 66 | 198 | 1.0 | 1.0 | 0.00 | 0.00 | 0.00 | 58 | 1005.2 |
| 20260505081506 | 66 | 10 | 2.0 | 2.0 | 0.00 | 0.00 | 0.00 | 59 | 1005.3 |
| 20260505081003 | 65 | 157 | 1.0 | 2.0 | 0.00 | 0.00 | 0.00 | 59 | 1005.3 |
| 20260505080459 | 65 | 280 | 2.0 | 3.0 | 0.00 | 0.00 | 0.00 | 59 | 1005.3 |
| 20260505075955 | 66 | 182 | 1.0 | 1.0 | 0.00 | 0.00 | 0.00 | 59 | 1005.0 |
| 20260505075452 | 66 | 198 | 3.0 | 3.0 | 0.00 | 0.00 | 0.00 | 58 | 1005.0 |
| 20260505074949 | 65 | 181 | 4.0 | 6.0 | 0.00 | 0.00 | 0.00 | 58 | 1004.9 |
| 20260505074447 | 65 | 229 | 3.0 | 3.0 | 0.00 | 0.00 | 0.00 | 59 | 1004.9 |
| 20260505073944 | 65 | 282 | 3.0 | 3.0 | 0.00 | 0.00 | 0.00 | 61 | 1005.1 |
| 20260505073441 | 65 | 89 | 2.0 | 2.0 | 0.00 | 0.00 | 0.00 | 62 | 1004.6 |
| 20260505072938 | 66 | 147 | 3.0 | 3.0 | 0.00 | 0.00 | 0.00 | 60 | 1004.9 |
| 20260505072434 | 66 | 185 | 2.0 | 2.0 | 0.00 | 0.00 | 0.00 | 60 | 1004.8 |
| 20260505071930 | 66 | 54 | 1.0 | 1.0 | 0.00 | 0.00 | 0.00 | 59 | 1004.9 |
| 20260505071427 | 66 | 160 | 2.0 | 2.0 | 0.00 | 0.00 | 0.00 | 58 | 1004.7 |
| 20260505070925 | 66 | 188 | 2.0 | 2.0 | 0.00 | 0.00 | 0.00 | 58 | 1004.8 |
| 20260505070421 | 66 | 310 | 4.0 | 5.0 | 0.00 | 0.00 | 0.00 | 58 | 1004.7 |
| 20260505065917 | 66 | 226 | 4.0 | 6.0 | 0.00 | 0.00 | 0.00 | 58 | 1004.9 |
| 20260505065413 | 66 | 154 | 2.0 | 2.0 | 0.00 | 0.00 | 0.00 | 58 | 1004.9 |
| 20260505064910 | 66 | 148 | 2.0 | 2.0 | 0.00 | 0.00 | 0.00 | 59 | 1004.8 |
| 20260505064408 | 65 | 26 | 2.0 | 2.0 | 0.00 | 0.00 | 0.00 | 59 | 1004.9 |
| 20260505063906 | 65 | 175 | 1.0 | 2.0 | 0.00 | 0.00 | 0.00 | 60 | 1004.9 |
| 20260505063402 | 65 | 201 | 2.0 | 2.0 | 0.00 | 0.00 | 0.00 | 61 | 1004.8 |
| 20260505062859 | 65 | 229 | 4.0 | 6.0 | 0.00 | 0.00 | 0.00 | 61 | 1004.8 |
| 20260505062356 | 65 | 114 | 2.0 | 2.0 | 0.00 | 0.00 | 0.00 | 61 | 1004.9 |
| 20260505061852 | 65 | 149 | 1.0 | 2.0 | 0.00 | 0.00 | 0.00 | 61 | 1005.0 |
| 20260505061351 | 65 | 143 | 1.0 | 1.0 | 0.00 | 0.00 | 0.00 | 61 | 1005.1 |
| 20260505060848 | 65 | 177 | 2.0 | 2.0 | 0.00 | 0.00 | 0.00 | 61 | 1005.0 |
| 20260505060344 | 65 | 176 | 1.0 | 1.0 | 0.00 | 0.00 | 0.00 | 61 | 1005.2 |
| 20260505055840 | 65 | 156 | 1.0 | 1.0 | 0.00 | 0.00 | 0.00 | 61 | 1005.3 |
| 20260505055336 | 65 | 74 | 1.0 | 1.0 | 0.00 | 0.00 | 0.00 | 62 | 1005.3 |
| 20260505054834 | 65 | 106 | 3.0 | 3.0 | 0.00 | 0.00 | 0.00 | 61 | 1005.2 |
| 20260505054331 | 65 | 227 | 4.0 | 5.0 | 0.00 | 0.00 | 0.00 | 61 | 1005.4 |
| 20260505053829 | 65 | 177 | 4.0 | 5.0 | 0.00 | 0.00 | 0.00 | 61 | 1005.5 |
| 20260505053326 | 65 | 175 | 2.0 | 3.0 | 0.00 | 0.00 | 0.00 | 61 | 1005.5 |
| 20260505052823 | 65 | 156 | 0.0 | 1.0 | 0.00 | 0.00 | 0.00 | 61 | 1005.5 |
| 20260505052320 | 65 | 238 | 2.0 | 3.0 | 0.00 | 0.00 | 0.00 | 61 | 1005.6 |
| 20260505051817 | 65 | 170 | 3.0 | 3.0 | 0.00 | 0.00 | 0.00 | 62 | 1005.7 |
| 20260505051314 | 65 | 145 | 1.0 | 1.0 | 0.00 | 0.00 | 0.00 | 62 | 1005.5 |
| 20260505050812 | 65 | 168 | 3.0 | 3.0 | 0.00 | 0.00 | 0.00 | 62 | 1005.7 |
| 20260505050311 | 65 | 136 | 1.0 | 1.0 | 0.00 | 0.00 | 0.00 | 62 | 1005.6 |
| 20260505041740 | 65 | 171 | 0.0 | 1.0 | 0.00 | 0.00 | 0.00 | 61 | 1006.0 |
| 20260505041237 | 65 | 89 | 1.0 | 1.0 | 0.00 | 0.00 | 0.00 | 62 | 1006.1 |
| 20260505040735 | 65 | 207 | 2.0 | 5.0 | 0.00 | 0.00 | 0.00 | 62 | 1006.0 |
| 20260505040232 | 64 | 147 | 7.0 | 9.0 | 0.00 | 0.00 | 0.00 | 61 | 1005.9 |
| 20260505035729 | 64 | 212 | 1.0 | 2.0 | 0.00 | 0.00 | 0.00 | 62 | 1006.1 |
| 20260505035225 | 64 | 161 | 1.0 | 2.0 | 0.00 | 0.00 | 0.00 | 61 | 1005.9 |
| 20260505034722 | 64 | 165 | 6.0 | 7.0 | 0.00 | 0.00 | 0.00 | 61 | 1005.9 |
| 20260505034219 | 64 | 177 | 4.0 | 5.0 | 0.00 | 0.00 | 0.00 | 61 | 1006.0 |
| 20260505033715 | 64 | 64 | 2.0 | 2.0 | 0.00 | 0.00 | 0.00 | 61 | 1005.9 |
| 20260505033213 | 64 | 149 | 1.0 | 1.0 | 0.00 | 0.00 | 0.00 | 62 | 1006.1 |
| 20260505032711 | 64 | 126 | 3.0 | 3.0 | 0.00 | 0.00 | 0.00 | 62 | 1006.1 |
| 20260505032206 | 64 | 174 | 4.0 | 7.0 | 0.00 | 0.00 | 0.00 | 61 | 1006.2 |
| 20260505031704 | 64 | 131 | 4.0 | 5.0 | 0.00 | 0.00 | 0.00 | 61 | 1006.3 |
| 20260505031200 | 64 | 186 | 1.0 | 1.0 | 0.00 | 0.00 | 0.00 | 62 | 1006.4 |
| 20260505030657 | 65 | 155 | 2.0 | 2.0 | 0.00 | 0.00 | 0.00 | 60 | 1006.4 |
| 20260505030153 | 64 | 234 | 1.0 | 1.0 | 0.00 | 0.00 | 0.00 | 61 | 1006.3 |
| 20260505025649 | 65 | 183 | 4.0 | 5.0 | 0.00 | 0.00 | 0.00 | 60 | 1006.2 |
| 20260505025148 | 65 | 162 | 2.0 | 2.0 | 0.00 | 0.00 | 0.00 | 60 | 1006.3 |
| 20260505024645 | 65 | 154 | 1.0 | 3.0 | 0.00 | 0.00 | 0.00 | 60 | 1006.2 |
| 20260505024142 | 65 | 233 | 2.0 | 2.0 | 0.00 | 0.00 | 0.00 | 59 | 1006.0 |
| 20260505023640 | 65 | 145 | 2.0 | 3.0 | 0.00 | 0.00 | 0.00 | 59 | 1006.3 |
| 20260505023137 | 65 | 173 | 2.0 | 2.0 | 0.00 | 0.00 | 0.00 | 59 | 1006.0 |
| 20260505022634 | 66 | 174 | 2.0 | 2.0 | 0.00 | 0.00 | 0.00 | 58 | 1006.3 |
| 20260505022131 | 65 | 270 | 2.0 | 3.0 | 0.00 | 0.00 | 0.00 | 57 | 1006.2 |
| 20260505021628 | 65 | 159 | 5.0 | 6.0 | 0.00 | 0.00 | 0.00 | 57 | 1006.2 |
| 20260505021124 | 66 | 281 | 1.0 | 2.0 | 0.00 | 0.00 | 0.00 | 57 | 1006.3 |
| 20260505020620 | 66 | 213 | 4.0 | 9.0 | 0.00 | 0.00 | 0.00 | 57 | 1006.2 |
| 20260505020116 | 66 | 183 | 0.0 | 0.0 | 0.00 | 0.00 | 0.00 | 56 | 1006.7 |
| 20260505015614 | 66 | 183 | 2.0 | 2.0 | 0.00 | 0.00 | 0.00 | 55 | 1006.3 |
| 20260505015110 | 66 | 122 | 2.0 | 2.0 | 0.00 | 0.00 | 0.00 | 55 | 1006.7 |
| 20260505014607 | 67 | 156 | 0.0 | 0.0 | 0.00 | 0.00 | 0.00 | 54 | 1006.3 |
| 20260505014104 | 67 | 169 | 2.0 | 2.0 | 0.00 | 0.00 | 0.00 | 54 | 1006.3 |
| 20260505013601 | 67 | 76 | 1.0 | 1.0 | 0.00 | 0.00 | 0.00 | 53 | 1006.2 |
| 20260505013059 | 67 | 139 | 5.0 | 5.0 | 0.00 | 0.00 | 0.00 | 52 | 1006.2 |
| 20260505012556 | 67 | 157 | 3.0 | 5.0 | 0.00 | 0.00 | 0.00 | 52 | 1006.1 |
| 20260505012053 | 67 | 230 | 1.0 | 1.0 | 0.00 | 0.00 | 0.00 | 52 | 1006.3 |
| 20260505011549 | 68 | 171 | 3.0 | 5.0 | 0.00 | 0.00 | 0.00 | 52 | 1006.1 |
| 20260505011046 | 68 | 180 | 3.0 | 3.0 | 0.00 | 0.00 | 0.00 | 51 | 1006.1 |
| 20260505010542 | 68 | 186 | 2.0 | 2.0 | 0.00 | 0.00 | 0.00 | 51 | 1006.1 |
| 20260505010038 | 68 | 181 | 2.0 | 2.0 | 0.00 | 0.00 | 0.00 | 51 | 1005.8 |
| 20260505005534 | 68 | 182 | 1.0 | 1.0 | 0.00 | 0.00 | 0.00 | 52 | 1005.8 |
| 20260505005032 | 68 | 192 | 2.0 | 2.0 | 0.00 | 0.00 | 0.00 | 50 | 1005.7 |
| 20260505004529 | 68 | 192 | 1.0 | 1.0 | 0.00 | 0.00 | 0.00 | 49 | 1005.7 |
| 20260505004026 | 68 | 115 | 2.0 | 2.0 | 0.00 | 0.00 | 0.00 | 51 | 1005.6 |
| 20260505003523 | 68 | 118 | 2.0 | 2.0 | 0.00 | 0.00 | 0.00 | 51 | 1005.7 |
| 20260505003020 | 69 | 162 | 1.0 | 1.0 | 0.00 | 0.00 | 0.00 | 51 | 1005.6 |
| 20260505002515 | 69 | 123 | 0.0 | 0.0 | 0.00 | 0.00 | 0.00 | 50 | 1005.4 |
| 20260505002015 | 69 | 163 | 1.0 | 1.0 | 0.00 | 0.00 | 0.00 | 50 | 1005.5 |